DateTimeUTC,F1_A11,F1_S11,BsB_S11,BsG_S11,BsR_S11,BbsB_S11,BbsG_S11,BbsR_S11,BaB_A11,BaG_A11,BaR_A11,T_S11,U_S11,P_S11,T1_A11
2020-08-15T00:00:00Z,00000388,20000608,,,,,,,,,,23.1,02.2,0666.2,30.7
2020-08-15T00:01:00Z,00000388,20000608,,,,,,,,,,23.1,02.2,0666.2,30.6
2020-08-15T00:02:00Z,00000388,20000608,,,,,,,,,,23.1,02.2,0666.2,30.6
2020-08-15T00:03:00Z,00000388,60000608,,,,,,,,,,23.1,02.2,0666.2,30.7
2020-08-15T00:04:00Z,00000388,40000608,0001.07,0000.26,0000.85,0000.71,0000.50,0000.12,0000.07,0000.01,0000.05,22.9,02.4,0667.3,30.7
2020-08-15T00:05:00Z,00000388,00000608,0000.11,-000.23,0000.80,-000.77,0000.42,-000.12,0000.03,0000.04,0000.04,22.9,02.3,0667.4,30.8
2020-08-15T00:06:00Z,00000388,00000608,-000.05,0000.38,0000.79,0000.47,0000.27,-000.36,-000.14,0000.10,0000.02,22.9,02.4,0667.4,30.8
2020-08-15T00:07:00Z,00000388,00000608,-000.16,0000.61,0000.40,-000.07,0000.19,0000.40,0000.09,-000.15,-000.05,23.0,02.4,0667.4,30.8
2020-08-15T00:08:00Z,00000388,00000608,0001.13,0000.05,0000.40,0000.71,0000.33,0000.37,-000.04,0000.09,-000.04,22.9,02.4,0667.4,30.8
2020-08-15T00:09:00Z,00000388,00000608,0000.47,-000.03,0000.02,-000.06,0000.16,-000.06,0000.08,0000.08,0000.06,22.9,02.3,0667.4,30.8
2020-08-15T00:10:00Z,00000388,00000608,0001.11,0000.23,0000.10,0000.28,0000.23,0000.10,-000.10,-000.08,0000.01,22.9,02.4,0667.4,30.7
2020-08-15T00:11:00Z,00000388,00000608,0000.90,0000.42,0000.39,0000.34,0000.15,0000.44,0000.08,0000.03,0000.04,22.8,02.4,0667.3,30.7
2020-08-15T00:12:00Z,00000388,00000608,0000.09,0000.27,0000.21,0001.06,0000.43,-000.42,0000.09,0000.03,-000.19,22.8,02.4,0667.3,30.7
2020-08-15T00:13:00Z,00000388,00000608,0001.07,0000.45,0000.59,0000.54,0000.31,0000.12,0000.13,0000.15,0000.31,22.8,02.4,0667.3,30.7
2020-08-15T00:14:00Z,00000388,00000608,0000.62,0000.37,0000.20,0000.32,0000.61,-000.46,-000.06,-000.09,-000.10,22.8,02.4,0667.3,30.6
2020-08-15T00:15:00Z,00000388,00000608,0000.86,-000.01,0000.23,0000.47,0000.15,-000.36,0000.04,0000.01,-000.02,22.7,02.4,0667.4,30.6
2020-08-15T00:16:00Z,00000388,00000608,0000.62,0000.19,0000.12,-000.25,-000.09,0000.14,-000.06,-000.02,-000.04,22.7,02.4,0667.3,30.6
2020-08-15T00:17:00Z,00000388,00000608,0000.39,-000.00,0000.02,-000.23,0000.39,0000.09,0000.13,0000.05,0000.19,22.7,02.4,0667.3,30.7
2020-08-15T00:18:00Z,00000388,00000608,0001.22,0000.24,0000.67,-000.04,0000.35,0000.03,-000.04,-000.09,-000.07,22.7,02.4,0667.4,30.7
2020-08-15T00:19:00Z,00000388,00000608,0000.86,0000.12,0000.08,-000.01,0000.19,-000.29,-000.10,0000.07,-000.05,22.7,02.3,0667.4,30.7
2020-08-15T00:20:00Z,00000388,00000608,0000.77,0000.43,0000.19,0000.71,0000.22,0000.09,0000.12,0000.09,0000.10,22.8,02.3,0667.5,30.8
2020-08-15T00:21:00Z,00000388,00000608,-000.11,0000.18,0000.06,0000.13,0000.46,0000.05,0000.02,0000.00,0000.05,22.8,02.3,0667.5,30.8
2020-08-15T00:22:00Z,00000388,00000608,-000.07,0000.62,0000.25,0000.37,0000.31,-000.11,-000.10,0000.03,-000.06,22.8,02.3,0667.5,30.8
2020-08-15T00:23:00Z,00000388,00000608,0000.45,0000.36,0000.42,0000.19,0000.14,0000.09,-000.02,-000.07,-000.11,22.8,02.3,0667.5,30.8
2020-08-15T00:24:00Z,00000388,00000608,0000.82,-000.19,-000.08,0000.46,0000.16,-000.12,-000.11,-000.12,0000.12,22.8,02.2,0667.5,30.8
2020-08-15T00:25:00Z,00000388,00000608,0000.70,0000.56,0000.59,0000.13,0000.45,-000.03,0000.15,0000.19,-000.06,22.8,02.2,0667.5,30.8
2020-08-15T00:26:00Z,00000388,00000608,0001.18,0000.54,0000.13,-000.04,0000.13,-000.04,-000.09,0000.07,0000.06,22.8,02.3,0667.5,30.7
2020-08-15T00:27:00Z,00000388,00000608,0000.93,0000.07,0000.15,0000.17,0000.44,0000.05,-000.01,-000.18,0000.01,22.7,02.2,0667.5,30.7
2020-08-15T00:28:00Z,00000388,00000608,0000.51,0000.39,0000.18,0000.73,0000.42,-000.23,0000.13,0000.07,-000.12,22.7,02.2,0667.4,30.7
2020-08-15T00:29:00Z,00000388,00000608,0000.22,0000.50,0000.18,0000.47,0000.42,0000.21,0000.02,0000.07,0000.24,22.7,02.3,0667.5,30.7
2020-08-15T00:30:00Z,00000388,00000608,0000.23,0000.29,0000.36,-001.17,0000.03,-000.21,0000.14,-000.03,-000.12,22.7,02.2,0667.4,30.7
2020-08-15T00:31:00Z,00000388,00000608,0000.48,0000.15,0000.47,0000.13,0000.63,-000.34,-000.09,0000.17,0000.11,22.7,02.2,0667.4,30.7
2020-08-15T00:32:00Z,00000388,00000608,0001.02,-000.01,-000.01,0000.15,0000.13,-000.05,0000.03,-000.31,-000.04,22.6,02.3,0667.4,30.6
2020-08-15T00:33:00Z,00000388,00000608,0000.18,0000.75,0000.34,0000.51,0000.28,0000.27,0000.04,0000.34,0000.13,22.6,02.2,0667.4,30.7
2020-08-15T00:34:00Z,00000388,00000608,-000.31,0000.33,0000.86,0000.27,0000.06,-000.22,-000.07,-000.02,-000.05,22.7,02.3,0667.5,30.7
2020-08-15T00:35:00Z,00000388,00000608,0000.97,-000.02,0000.19,0000.51,0000.34,0000.03,0000.09,0000.03,-000.12,22.7,02.3,0667.5,30.8
2020-08-15T00:36:00Z,00000388,00000608,0000.12,0000.36,0000.37,0000.44,0001.06,0000.05,0000.07,0000.14,0000.21,22.8,02.3,0667.6,30.8
2020-08-15T00:37:00Z,00000388,00000608,-000.73,0000.84,0000.67,0000.61,0000.63,0000.06,0000.05,-000.05,-000.04,22.8,02.3,0667.6,30.8
2020-08-15T00:38:00Z,00000388,00000608,0001.71,0000.60,0000.13,0000.20,0000.29,0000.01,-000.06,-000.07,-000.07,22.8,02.3,0667.6,30.8
2020-08-15T00:39:00Z,00000388,00000608,0001.11,0000.41,0000.46,0000.25,0000.35,-000.41,-000.04,-000.09,0000.02,22.8,02.2,0667.6,30.8
2020-08-15T00:40:00Z,00000388,00000608,0001.26,0001.03,0000.11,0000.18,0000.31,0000.07,-000.01,0000.09,0000.01,22.8,02.3,0667.5,30.8
2020-08-15T00:41:00Z,00000388,00000608,0000.29,0000.61,0000.78,0000.62,0000.31,0000.16,0000.15,0000.16,0000.21,22.8,02.3,0667.5,30.8
2020-08-15T00:42:00Z,00000388,00000608,0001.13,0000.20,0000.74,0000.35,0000.57,-000.14,0000.19,0000.17,0000.11,22.7,02.3,0667.5,30.7
2020-08-15T00:43:00Z,00000388,00000608,0000.73,0000.20,0000.45,0000.63,0000.35,-000.26,0000.86,0000.76,0000.55,22.7,02.4,0667.4,30.7
2020-08-15T00:44:00Z,00000388,00000608,0000.66,0000.99,0001.00,0000.94,0000.72,-000.16,0001.94,0001.69,0001.35,22.7,02.4,0667.4,30.7
2020-08-15T00:45:00Z,00000388,00000608,0000.93,0000.83,0000.17,0000.07,0000.30,-000.47,0003.94,0003.37,0002.56,22.7,02.4,0667.4,30.7
2020-08-15T00:46:00Z,00000388,00000608,0002.61,0001.20,0000.70,0000.52,0000.44,0000.46,0003.86,0003.58,0002.73,22.7,02.4,0667.4,30.7
2020-08-15T00:47:00Z,00000388,00000608,0001.17,0000.98,0000.63,-000.19,0000.26,0000.13,0004.46,0004.13,0003.07,22.6,02.4,0667.4,30.6
2020-08-15T00:48:00Z,00000388,00000608,0001.42,0000.90,0000.52,-000.27,0000.28,-000.02,0004.37,0003.88,0002.94,22.6,02.5,0667.5,30.7
2020-08-15T00:49:00Z,00000388,00000608,0001.53,-000.01,0000.81,-000.45,0000.00,-000.14,0003.51,0003.07,0002.40,22.7,02.5,0667.5,30.7
2020-08-15T00:50:00Z,00000388,00000608,0001.15,0001.18,0000.71,0000.84,0000.43,-000.22,0003.68,0003.53,0002.52,22.7,02.5,0667.5,30.8
2020-08-15T00:51:00Z,00000388,00000608,0002.16,0000.58,0000.47,0000.55,0000.60,0000.28,0002.16,0001.78,0001.48,22.8,02.5,0667.6,30.8
2020-08-15T00:52:00Z,00000388,00000608,0001.63,0000.86,0000.91,0000.59,0000.46,0000.41,0003.05,0002.81,0002.21,22.8,02.5,0667.6,30.8
2020-08-15T00:53:00Z,00000388,00000608,0002.23,0000.73,0000.89,-000.08,0000.50,-000.09,0003.24,0003.02,0002.23,22.9,02.4,0667.6,30.8
2020-08-15T00:54:00Z,00000388,00000608,0001.33,0000.45,0000.51,0000.37,0000.35,-000.04,0004.04,0003.64,0002.70,22.9,02.4,0667.6,30.8
2020-08-15T00:55:00Z,00000388,00000608,0001.70,0001.23,0000.60,0000.84,0000.51,-000.06,0003.42,0002.97,0002.27,22.8,02.4,0667.6,30.8
2020-08-15T00:56:00Z,00000388,00000608,0000.34,0001.02,-000.02,0000.61,0000.39,-000.07,0003.84,0003.61,0002.69,22.8,02.3,0667.5,30.8
2020-08-15T00:57:00Z,00000388,40000608,,,,,,,,,,22.8,02.4,0667.4,30.7
2020-08-15T00:58:00Z,00000388,60000608,,,,,,,,,,22.9,02.2,0666.6,30.7
2020-08-15T00:59:00Z,00000388,20000608,,,,,,,,,,23.0,02.2,0666.5,30.7
2020-08-15T01:00:00Z,00000388,20000608,,,,,,,,,,23.0,02.2,0666.5,30.7
2020-08-15T01:01:00Z,00000388,20000608,,,,,,,,,,23.0,02.2,0666.5,30.7
2020-08-15T01:02:00Z,00000388,20000608,,,,,,,,,,23.0,02.2,0666.5,30.7
2020-08-15T01:03:00Z,00000388,60000608,,,,,,,,,,23.0,02.2,0666.4,30.7
2020-08-15T01:04:00Z,00000388,40000608,0000.85,0000.14,-000.12,0000.42,0000.35,0000.23,0000.16,0000.21,0000.21,22.8,02.3,0667.4,30.7
2020-08-15T01:05:00Z,00000388,00000608,0000.51,0000.13,0000.58,0000.11,0000.11,0000.04,0000.13,0000.16,0000.04,22.8,02.3,0667.4,30.8
2020-08-15T01:06:00Z,00000388,00000608,0001.12,-000.02,-000.06,-000.12,0000.06,-000.31,0000.15,0000.28,0000.20,22.8,02.3,0667.4,30.8
2020-08-15T01:07:00Z,00000388,00000608,0001.02,0000.19,-000.30,-000.06,0000.12,0000.02,0000.09,0000.06,-000.00,22.9,02.4,0667.4,30.8
2020-08-15T01:08:00Z,00000388,00000608,0000.77,0000.41,0000.22,0000.37,-000.42,0000.26,0000.94,0000.83,0000.69,22.9,02.4,0667.5,30.9
2020-08-15T01:09:00Z,00000388,00000608,0000.80,-000.05,0000.19,0000.16,0000.21,-000.07,0000.68,0000.47,0000.46,23.0,02.4,0667.4,30.9
2020-08-15T01:10:00Z,00000388,00000608,0001.88,0000.67,0000.39,-000.13,-000.32,-000.02,0000.97,0000.97,0000.62,22.9,02.4,0667.4,30.8
2020-08-15T01:11:00Z,00000388,00000608,0000.55,0000.24,-000.18,0000.88,0000.28,0000.26,0000.90,0000.84,0000.70,22.9,02.3,0667.4,30.8
2020-08-15T01:12:00Z,00000388,00000608,0000.78,0000.44,-000.01,0000.75,0000.21,0000.28,0000.85,0000.75,0000.55,22.9,02.3,0667.5,30.8
2020-08-15T01:13:00Z,00000388,00000608,0001.18,-000.25,0000.66,0000.83,0000.03,0000.13,0000.86,0000.79,0000.59,22.8,02.3,0667.4,30.7
2020-08-15T01:14:00Z,00000388,00000608,0000.76,0000.32,-000.11,0000.29,-000.17,-000.02,0000.73,0000.64,0000.47,22.8,02.3,0667.4,30.7
2020-08-15T01:15:00Z,00000388,00000608,-000.10,0000.43,-000.10,0000.12,0000.01,0000.32,0000.99,0001.00,0000.84,22.8,02.3,0667.3,30.7
2020-08-15T01:16:00Z,00000388,00000608,0001.54,0000.30,0000.32,-000.25,-000.21,0000.28,0001.03,0000.89,0000.56,22.8,02.4,0667.3,30.7
2020-08-15T01:17:00Z,00000388,00000608,0000.94,0000.26,0000.03,0000.21,0000.26,0000.39,0001.76,0001.37,0001.13,22.8,02.3,0667.3,30.7
2020-08-15T01:18:00Z,00000388,00000608,0000.55,0000.14,0000.44,0000.18,0000.14,0000.17,0001.37,0001.40,0000.94,22.7,02.3,0667.3,30.7
2020-08-15T01:19:00Z,00000388,00000608,0001.32,0000.16,0000.15,0000.79,0000.01,0000.02,0001.48,0001.39,0001.27,22.8,02.3,0667.4,30.7
2020-08-15T01:20:00Z,00000388,00000608,0000.59,0000.24,0000.78,0000.24,-000.05,0000.71,0001.64,0001.32,0000.93,22.8,02.3,0667.4,30.8
2020-08-15T01:21:00Z,00000388,00000608,0000.32,-000.06,-000.20,0000.27,0000.04,-000.01,0000.78,0000.92,0000.75,22.9,02.3,0667.5,30.8
2020-08-15T01:22:00Z,00000388,00000608,0001.06,0000.40,0000.07,0000.47,-000.33,-000.05,0000.64,0000.54,0000.31,22.9,02.3,0667.5,30.8
2020-08-15T01:23:00Z,00000388,00000608,0001.11,0000.42,0000.12,0000.92,-000.53,0000.23,0000.69,0000.65,0000.55,23.0,02.3,0667.5,30.9
2020-08-15T01:24:00Z,00000388,00000608,0000.26,0000.62,-000.01,0000.39,0000.30,0000.14,0000.77,0000.70,0000.42,23.0,02.3,0667.5,30.9
2020-08-15T01:25:00Z,00000388,00000608,-000.04,-000.08,0000.04,0000.19,0000.11,-000.08,0000.20,0000.03,0000.22,23.0,02.3,0667.5,30.9
2020-08-15T01:26:00Z,00000388,00000608,0000.70,0000.48,0000.24,0001.31,0000.07,0000.02,0000.42,0000.54,0000.20,23.0,02.3,0667.5,30.8
2020-08-15T01:27:00Z,00000388,00000608,0000.98,0000.50,0000.53,-000.38,0000.06,0000.85,0000.32,0000.29,0000.25,23.0,02.3,0667.5,30.8
2020-08-15T01:28:00Z,00000388,00000608,0001.10,0000.60,0000.43,-000.02,0000.16,0000.12,0000.36,0000.29,0000.41,22.9,02.3,0667.5,30.8
2020-08-15T01:29:00Z,00000388,00000608,0000.81,0000.26,-000.06,0000.66,0000.21,0000.19,0000.27,0000.29,0000.10,22.9,02.2,0667.4,30.7
2020-08-15T01:30:00Z,00000388,00000608,0001.38,-000.21,0000.43,0000.25,0000.16,0000.42,0000.21,0000.19,0000.31,22.9,02.2,0667.4,30.7
2020-08-15T01:31:00Z,00000388,00000608,0000.69,0000.42,0000.65,0000.29,0000.04,0000.35,0000.30,0000.16,-000.06,22.9,02.3,0667.4,30.7
2020-08-15T01:32:00Z,00000388,00000608,0000.44,0000.62,0000.59,-000.62,0000.19,0000.42,0000.25,0000.17,0000.25,22.8,02.3,0667.4,30.7
2020-08-15T01:33:00Z,00000388,00000608,0000.74,-000.26,0000.39,0000.58,0000.09,0000.44,0000.23,0000.34,0000.19,22.8,02.3,0667.4,30.7
2020-08-15T01:34:00Z,00000388,00000608,-000.62,0000.06,0000.14,0000.84,-000.15,0000.21,0000.20,0000.21,0000.16,22.8,02.3,0667.5,30.7
2020-08-15T01:35:00Z,00000388,00000608,0000.10,0000.25,0000.58,0000.48,-000.07,-000.15,0000.33,0000.38,0000.22,22.9,02.3,0667.4,30.8
2020-08-15T01:36:00Z,00000388,00000608,0001.56,0000.62,0000.57,-000.66,0000.21,-000.09,0000.41,0000.34,0000.26,22.9,02.3,0667.4,30.8
2020-08-15T01:37:00Z,00000388,00000608,0000.01,0000.22,0000.15,0000.21,-000.24,0000.37,0000.38,0000.24,0000.30,23.0,02.3,0667.5,30.9
2020-08-15T01:38:00Z,00000388,00000608,0000.74,-000.18,0000.29,0000.24,-000.02,0000.46,0000.35,0000.32,0000.24,23.0,02.3,0667.4,30.9
2020-08-15T01:39:00Z,00000388,00000608,0000.38,0000.16,0000.57,-000.40,0000.26,-000.35,0000.37,0000.38,0000.20,23.1,02.4,0667.5,30.9
2020-08-15T01:40:00Z,00000388,00000608,0000.32,0000.27,0000.43,0000.64,0000.31,0000.21,0000.22,0000.38,0000.19,23.1,02.3,0667.5,30.9
2020-08-15T01:41:00Z,00000388,00000608,0001.21,0000.44,0000.65,0000.63,0000.37,0000.09,0000.36,0000.18,0000.13,23.0,02.3,0667.6,30.8
2020-08-15T01:42:00Z,00000388,00000608,-000.02,0000.88,0000.10,0000.65,-000.55,0000.20,0000.32,0000.16,0000.27,23.0,02.3,0667.5,30.8
2020-08-15T01:43:00Z,00000388,00000608,0001.01,0000.15,-000.06,0000.21,0000.40,0000.24,0000.25,0000.34,0000.27,23.0,02.2,0667.5,30.8
2020-08-15T01:44:00Z,00000388,00000608,0000.85,0000.35,0000.20,0000.18,-000.14,0000.01,0000.33,0000.30,0000.15,22.9,02.3,0667.5,30.7
2020-08-15T01:45:00Z,00000388,00000608,-000.05,0000.26,0000.19,0001.37,0000.13,-000.11,0000.18,0000.21,0000.22,22.9,02.3,0667.4,30.7
2020-08-15T01:46:00Z,00000388,00000608,0000.48,-000.06,0000.11,-000.57,0000.40,0000.19,0000.17,0000.15,0000.09,22.9,02.3,0667.5,30.7
2020-08-15T01:47:00Z,00000388,00000608,0000.02,0000.04,-000.09,-000.85,0000.15,-000.11,0000.48,0000.31,0000.23,22.9,02.3,0667.4,30.7
2020-08-15T01:48:00Z,00000388,00000608,0000.70,0000.27,0000.22,0001.32,0000.28,-000.00,0000.90,0000.92,0000.76,22.8,02.3,0667.5,30.7
2020-08-15T01:49:00Z,00000388,00000608,0000.51,-000.05,0000.21,0000.27,-000.19,0000.09,0000.64,0000.62,0000.41,22.9,02.2,0667.5,30.8
2020-08-15T01:50:00Z,00000388,00000608,0000.77,0000.19,-000.18,0000.02,0000.16,0000.77,0001.39,0001.12,0000.88,22.9,02.3,0667.5,30.8
2020-08-15T01:51:00Z,00000388,00000608,0001.12,0000.73,0000.13,0000.17,0000.02,0000.21,0002.18,0002.08,0001.56,23.0,02.3,0667.5,30.8
2020-08-15T01:52:00Z,00000388,00000608,0001.13,0000.69,0000.04,0000.76,0000.26,0000.02,0001.03,0000.81,0000.68,23.0,02.2,0667.5,30.9
2020-08-15T01:53:00Z,00000388,00000608,0001.95,0000.52,0000.23,0000.36,0000.30,-000.30,0001.87,0001.76,0001.38,23.1,02.3,0667.5,30.9
2020-08-15T01:54:00Z,00000388,00000608,0001.54,0000.29,0000.84,0000.40,-000.11,0000.71,0004.04,0003.75,0002.73,23.1,02.2,0667.6,30.9
2020-08-15T01:55:00Z,00000388,00000608,0001.42,0000.48,0000.31,-000.02,-000.14,0000.32,0004.38,0003.82,0002.96,23.1,02.2,0667.6,30.9
2020-08-15T01:56:00Z,00000388,00000608,0000.94,0000.35,0000.28,0001.14,0000.20,0000.15,0004.81,0004.37,0003.29,23.1,02.2,0667.6,30.9
2020-08-15T01:57:00Z,00000388,40000608,,,,,,,,,,23.1,02.2,0667.5,30.8
2020-08-15T01:58:00Z,00000388,60000608,,,,,,,,,,23.1,02.2,0666.6,30.8
2020-08-15T01:59:00Z,00000388,20000608,,,,,,,,,,23.2,02.2,0666.5,30.8
2020-08-15T02:00:00Z,00000388,20000608,,,,,,,,,,23.2,02.2,0666.5,30.7
2020-08-15T02:01:00Z,00000388,20000608,,,,,,,,,,23.2,02.1,0666.5,30.7
2020-08-15T02:02:00Z,00000388,20000608,,,,,,,,,,23.2,02.1,0666.5,30.7
2020-08-15T02:03:00Z,00000388,60000608,,,,,,,,,,23.2,02.1,0666.5,30.7
2020-08-15T02:04:00Z,00000388,40000608,0001.66,0001.57,0000.40,-000.02,0000.34,0000.38,0004.21,0003.72,0002.88,23.0,02.2,0667.5,30.8
2020-08-15T02:05:00Z,00000388,00000608,0000.74,0000.85,0000.30,0000.03,-000.05,0000.08,0002.38,0002.40,0001.77,23.0,02.2,0667.5,30.8
2020-08-15T02:06:00Z,00000388,00000608,0001.70,0001.01,0000.18,0001.06,0000.49,-000.31,0002.04,0001.63,0001.34,23.1,02.3,0667.5,30.8
2020-08-15T02:07:00Z,00000388,00000608,0001.81,0001.26,0000.18,-000.18,0000.31,-000.04,0001.89,0001.96,0001.44,23.1,02.2,0667.6,30.9
2020-08-15T02:08:00Z,00000388,00000608,0000.98,0000.34,0000.23,-000.23,0000.66,0000.22,0001.28,0001.16,0000.96,23.2,02.3,0667.6,30.9
2020-08-15T02:09:00Z,00000388,00000608,0001.14,0000.70,0000.06,0000.67,0000.56,0000.38,0001.35,0001.16,0000.93,23.1,02.2,0667.6,30.9
2020-08-15T02:10:00Z,00000388,00000608,0001.15,0000.98,0000.68,0000.47,0000.34,0000.22,0001.22,0001.07,0000.68,23.1,02.2,0667.6,30.8
2020-08-15T02:11:00Z,00000388,00000608,0000.74,0000.65,0000.61,-000.15,0000.66,0000.14,0000.95,0001.07,0000.79,23.1,02.2,0667.6,30.8
2020-08-15T02:12:00Z,00000388,00000608,0001.14,0000.81,0000.60,0000.73,0000.17,-000.18,0001.31,0000.97,0000.86,23.0,02.2,0667.6,30.8
2020-08-15T02:13:00Z,00000388,00000608,0000.95,0000.54,0000.31,-000.40,0000.45,0000.05,0000.95,0000.92,0000.65,23.0,02.2,0667.6,30.7
2020-08-15T02:14:00Z,00000388,00000608,0001.47,0000.50,0000.33,0000.72,0000.21,0000.18,0001.12,0001.10,0000.79,23.0,02.2,0667.5,30.7
2020-08-15T02:15:00Z,00000388,00000608,0000.97,0000.91,0000.31,0000.48,0000.40,-000.07,0002.10,0001.75,0001.42,22.9,02.2,0667.6,30.7
2020-08-15T02:16:00Z,00000388,00000608,0001.48,0000.78,0000.36,0000.48,0000.40,0000.15,0001.85,0001.63,0001.22,22.9,02.2,0667.6,30.7
2020-08-15T02:17:00Z,00000388,00000608,0001.07,0001.36,0000.26,0000.83,0000.60,-000.21,0003.08,0002.53,0002.02,22.9,02.2,0667.6,30.7
2020-08-15T02:18:00Z,00000388,00000608,0001.42,0000.68,0000.07,0001.25,0000.08,0000.00,0004.19,0004.11,0003.02,22.9,02.2,0667.7,30.7
2020-08-15T02:19:00Z,00000388,00000608,0002.70,0002.03,0000.88,0000.67,0000.81,-000.20,0007.95,0007.09,0005.38,22.9,02.2,0667.8,30.7
2020-08-15T02:20:00Z,00000388,00000608,0001.75,0001.42,0000.54,0000.24,0000.27,0000.24,0005.47,0005.02,0003.84,22.9,02.2,0667.8,30.8
2020-08-15T02:21:00Z,00000388,00000608,0001.15,0001.01,0000.02,-000.37,0000.11,-000.22,0003.00,0002.64,0002.03,23.0,02.2,0667.9,30.8
2020-08-15T02:22:00Z,00000388,00000608,0001.84,0001.70,0000.54,0000.01,0000.35,0000.00,0003.91,0003.60,0002.87,23.0,02.1,0667.9,30.8
2020-08-15T02:23:00Z,00000388,00000608,0001.34,0001.32,0000.45,-000.24,0000.84,-000.22,0004.58,0004.18,0002.96,23.1,02.1,0667.9,30.9
2020-08-15T02:24:00Z,00000388,00000608,0001.44,0001.22,0000.38,0000.54,0000.53,0000.08,0005.40,0004.84,0003.74,23.1,02.1,0667.9,30.9
2020-08-15T02:25:00Z,00000388,00000608,0002.29,0001.73,0000.54,0001.30,0000.49,0000.24,0004.83,0004.45,0003.30,23.1,02.1,0667.9,30.9
2020-08-15T02:26:00Z,00000388,00000608,0001.90,0001.05,0000.65,0000.85,0000.53,-000.19,0005.11,0004.54,0003.39,23.1,02.1,0667.9,30.8
2020-08-15T02:27:00Z,00000388,00000608,0002.27,0000.82,0000.33,0001.14,0000.47,0000.16,0006.42,0005.74,0004.53,23.0,02.0,0667.9,30.8
2020-08-15T02:28:00Z,00000388,00000608,0001.35,0001.30,0000.48,0001.28,0000.86,0000.12,0005.24,0004.65,0003.60,23.0,02.0,0667.8,30.7
2020-08-15T02:29:00Z,00000388,00000608,0001.78,0001.29,0000.28,0000.14,0000.44,0000.32,0003.78,0003.46,0002.70,22.9,02.1,0667.8,30.7
2020-08-15T02:30:00Z,00000388,00000608,0000.91,0000.70,0000.42,0000.53,0000.77,0000.29,0003.58,0003.12,0002.35,22.9,02.0,0667.7,30.7
2020-08-15T02:31:00Z,00000388,00000608,0001.91,0000.74,0000.47,0000.39,0000.40,-000.01,0001.28,0001.12,0000.88,22.9,02.0,0667.7,30.7
2020-08-15T02:32:00Z,00000388,00000608,0002.96,0000.74,0000.85,0000.64,0000.58,0000.21,0001.18,0001.15,0000.96,22.9,02.0,0667.7,30.7
2020-08-15T02:33:00Z,00000388,00000608,0001.48,0000.64,0000.36,0000.02,0000.23,-000.11,0000.93,0000.87,0000.51,22.9,02.1,0667.7,30.7
2020-08-15T02:34:00Z,00000388,00000608,0000.49,0000.36,-000.02,0000.20,0000.18,-000.31,0001.87,0001.80,0001.53,22.9,02.0,0667.8,30.7
2020-08-15T02:35:00Z,00000388,00000608,0001.01,0000.59,0000.99,0000.02,0000.21,-000.07,0001.69,0001.31,0001.01,22.9,02.1,0667.8,30.8
2020-08-15T02:36:00Z,00000388,00000608,0001.69,0000.51,-000.07,0000.35,0000.36,-000.53,0001.39,0001.43,0000.84,23.0,02.0,0667.8,30.8
2020-08-15T02:37:00Z,00000388,00000608,0000.85,0000.83,0000.75,0000.42,0000.14,-000.31,0001.07,0001.04,0000.75,23.1,02.1,0667.7,30.9
2020-08-15T02:38:00Z,00000388,00000608,0001.03,0000.57,0000.45,0000.30,0000.20,0000.14,0000.50,0000.39,0000.36,23.1,02.1,0667.7,30.9
2020-08-15T02:39:00Z,00000388,00000608,0001.42,0000.93,0000.10,-000.07,0000.02,0000.13,0000.94,0000.76,0000.61,23.1,02.0,0667.7,30.9
2020-08-15T02:40:00Z,00000388,00000608,0001.09,0000.76,0000.32,0000.73,0000.59,0000.23,0000.71,0000.70,0000.52,23.1,02.1,0667.6,30.8
2020-08-15T02:41:00Z,00000388,00000608,0001.62,0000.80,0000.60,0000.02,0000.52,0000.24,0001.36,0001.27,0001.00,23.0,02.1,0667.6,30.8
2020-08-15T02:42:00Z,00000388,00000608,0002.27,0000.78,0000.27,0000.50,0000.69,-000.01,0002.18,0001.75,0001.40,23.0,02.1,0667.6,30.8
2020-08-15T02:43:00Z,00000388,00000608,0000.87,0000.78,0000.26,0000.89,0000.19,-000.00,0001.48,0001.73,0001.06,22.9,02.1,0667.6,30.7
2020-08-15T02:44:00Z,00000388,00000608,0001.63,0000.85,0000.01,0000.83,0000.49,-000.07,0002.27,0001.62,0001.64,22.9,02.1,0667.5,30.7
2020-08-15T02:45:00Z,00000388,00000608,0001.13,0000.82,0000.37,0000.16,0000.13,-000.04,0001.05,0001.16,0000.63,22.9,02.2,0667.5,30.7
2020-08-15T02:46:00Z,00000388,00000608,0001.17,0000.18,0000.02,0001.49,0000.45,-000.06,0000.39,0000.48,0000.36,22.9,02.2,0667.4,30.7
2020-08-15T02:47:00Z,00000388,00000608,0001.81,0000.75,0000.19,0000.36,0000.29,-000.07,0000.66,0000.33,0000.36,22.9,02.2,0667.4,30.6
2020-08-15T02:48:00Z,00000388,00000608,0001.55,0001.25,0000.33,0000.42,0000.54,-000.36,0000.46,0000.66,0000.36,22.8,02.2,0667.5,30.7
2020-08-15T02:49:00Z,00000388,00000608,0002.33,0000.55,0000.11,0000.80,0000.31,0000.03,0000.72,0000.62,0000.57,22.9,02.1,0667.5,30.7
2020-08-15T02:50:00Z,00000388,00000608,0000.89,0000.10,0000.59,0000.37,0000.35,0000.14,0000.38,0000.42,0000.44,22.9,02.2,0667.6,30.8
2020-08-15T02:51:00Z,00000388,00000608,0000.98,0000.41,0000.10,0000.69,0000.44,-000.20,0000.49,0000.37,0000.23,23.0,02.2,0667.6,30.8
2020-08-15T02:52:00Z,00000388,00000608,0000.61,0000.85,0000.61,0000.95,0000.40,0000.18,0000.72,0000.66,0000.50,23.0,02.3,0667.6,30.8
2020-08-15T02:53:00Z,00000388,00000608,0001.50,0000.70,-000.02,0000.71,0000.72,0000.28,0000.54,0000.44,0000.31,23.0,02.2,0667.6,30.9
2020-08-15T02:54:00Z,00000388,00000608,0001.28,0001.29,0000.53,0001.56,0000.43,0000.52,0000.81,0000.61,0000.70,23.1,02.2,0667.6,30.8
2020-08-15T02:55:00Z,00000388,00000608,0002.35,0000.88,0000.16,0000.26,0000.05,0000.39,0000.59,0000.66,0000.33,23.1,02.2,0667.6,30.8
2020-08-15T02:56:00Z,00000388,00000608,0001.77,0001.49,0000.09,-000.45,-000.02,-000.19,0000.67,0000.72,0000.30,23.0,02.2,0667.6,30.8
2020-08-15T02:57:00Z,00000388,40000608,,,,,,,,,,23.0,02.1,0667.5,30.8
2020-08-15T02:58:00Z,00000388,60000608,,,,,,,,,,23.0,02.2,0666.6,30.7
2020-08-15T02:59:00Z,00000388,20000608,,,,,,,,,,23.1,02.1,0666.5,30.7
2020-08-15T03:00:00Z,00000388,20000608,,,,,,,,,,23.1,02.1,0666.5,30.7
2020-08-15T03:01:00Z,00000388,20000608,,,,,,,,,,23.1,02.1,0666.5,30.7
2020-08-15T03:02:00Z,00000388,20000608,,,,,,,,,,23.1,02.1,0666.5,30.7
2020-08-15T03:03:00Z,00000388,60000608,,,,,,,,,,23.1,02.1,0666.5,30.7
2020-08-15T03:04:00Z,00000388,40000608,0002.11,0000.53,0000.40,0000.45,0000.32,0000.28,0000.12,0000.29,0000.16,22.9,02.3,0667.5,30.8
2020-08-15T03:05:00Z,00000388,00000608,0000.65,0000.30,-000.08,0000.33,-000.02,0000.12,0000.24,0000.31,0000.16,23.0,02.3,0667.6,30.8
2020-08-15T03:06:00Z,00000388,00000608,0001.55,-000.09,0000.16,-000.06,-000.13,0000.40,0000.07,-000.09,0000.05,23.0,02.4,0667.6,30.8
2020-08-15T03:07:00Z,00000388,00000608,0000.98,0000.25,-000.05,0000.32,-000.03,-000.12,0000.18,0000.21,0000.10,23.0,02.3,0667.5,30.9
2020-08-15T03:08:00Z,00000388,00000608,0001.37,0000.39,0000.14,-000.17,0000.23,-000.10,0000.12,0000.04,0000.06,23.1,02.3,0667.5,30.9
2020-08-15T03:09:00Z,00000388,00000608,0001.18,0000.36,0000.13,-000.06,0000.23,0000.30,-000.11,-000.04,0000.00,23.1,02.3,0667.5,30.8
2020-08-15T03:10:00Z,00000388,00000608,0000.93,0000.76,0000.23,0000.66,0000.04,0000.24,0000.10,0000.08,0000.08,23.0,02.4,0667.4,30.8